Temperature
9 9 9 9 9 9 9 9 9 9 9 9 10 10 10 10 10 10 10 10 10 10 10 10 11 10 10 10 10 10 10 10 9 8 8 7 7 7 7 7 7 7 7
8 8 8 8 8 9 9 9 9 9 9 9 9 9 9 9 9 10 10 10 10 10 10 10 10 10 10 10 10 10 9 9 9 8 7 7 7 7 7 7 7 7 7
8 8 8 8 8 8 8 8 8 8 8 8 8 8 9 9 9 9 9 9 9 9 9 9 9 9 9 9 9 9 9 9 9 8 8 7 7 7 7 7 7 7 7
8 8 8 8 8 8 8 8 8 8 8 8 8 8 8 8 8 8 8 9 9 9 9 9 9 9 9 9 9 9 9 9 8 8 8 8 7 7 8 8 8 8 8
7 7 7 7 7 7 7 7 7 7 7 7 7 7 8 8 8 8 8 8 8 8 8 8 8 8 8 9 9 8 8 8 8 8 8 8 8 8 8 8 8 8 8
7 7 7 7 7 7 7 7 7 7 7 7 7 7 7 7 7 7 8 8 8 8 8 8 8 8 8 8 8 8 8 8 8 8 8 8 8 8 8 8 8 8 8
7 7 7 7 7 7 6 6 6 6 7 7 7 7 7 7 7 7 7 7 7 8 8 8 7 8 8 8 8 8 8 8 8 8 8 8 8 8 8 8 8 8 8
7 7 7 7 6 6 6 6 6 6 6 6 7 7 7 7 7 7 7 7 7 7 7 7 8 8 8 8 8 8 8 8 8 8 8 8 8 8 8 8 8 8 8
7 7 7 6 6 6 6 6 6 6 6 6 6 6 7 7 7 7 7 7 7 7 7 7 7 7 7 7 8 8 8 8 8 8 8 8 8 8 8 8 8 8 8
7 7 6 6 6 6 6 6 6 6 6 6 6 6 7 7 7 7 7 7 7 7 7 7 7 7 7 7 7 7 7 7 7 7 7 7 7 7 7 7 7 7 7
6 6 6 6 6 6 6 6 6 6 6 6 6 6 7 7 7 7 7 7 7 7 7 7 7 7 7 7 7 7 7 7 7 7 8 7 7 7 7 7 7 7 7
6 6 6 6 6 6 6 6 6 6 6 6 6 6 7 7 7 7 7 7 7 7 7 7 7 7 7 7 7 7 7 8 8 8 8 8 8 7 7 7 7 7 7
6 6 6 6 6 6 6 6 7 7 7 7 7 7 6 7 7 7 7 7 7 7 7 7 7 7 7 7 7 7 8 8 8 8 8 8 7 7 7 7 7 7 7
6 6 6 6 6 6 6 7 7 7 7 7 7 7 7 7 6 7 7 7 7 7 7 7 7 7 7 7 7 7 7 8 8 8 7 7 8 8 8 7 7 8 8
6 6 6 6 6 6 6 7 7 7 7 7 7 7 7 7 7 7 7 7 7 7 7 7 8 8 8 8 8 8 8 8 7 7 7 7 8 8 8 8 8 8 8
7 7 7 7 7 7 7 7 7 7 7 7 7 7 7 7 7 7 7 7 7 7 8 8 8 8 8 8 8 8 8 7 7 7 7 7 7 7 8 8 8 8 8
7 7 7 7 7 7 7 7 7 7 7 7 7 7 7 7 7 7 7 8 8 8 8 8 8 8 8 8 8 8 8 7 7 7 7 7 7 7 7 7 7 8 8
7 7 8 8 8 8 8 8 8 7 7 7 7 7 7 7 7 8 8 8 8 8 9 9 8 8 8 8 8 8 8 7 7 7 7 7 7 7 7 7 7 7 7
8 8 8 8 8 8 8 9 8 8 8 8 8 8 8 8 8 8 8 8 8 9 9 9 9 8 8 8 8 8 8 8 7 7 7 7 7 7 7 7 7 8 8
8 8 8 8 9 9 9 9 9 9 9 9 8 8 8 8 8 8 9 9 9 9 9 9 9 8 8 8 8 8 8 8 8 8 7 7 7 7 7 7 7 8 8
8 8 8 9 9 9 9 10 10 10 10 9 9 9 9 9 9 9 9 9 9 9 9 9 9 9 9 8 8 8 8 8 8 8 7 7 7 7 7 7 8 8 8
9 9 9 9 9 10 10 10 10 10 10 10 10 10 10 9 10 10 10 9 9 9 9 9 9 9 9 8 8 8 8 8 8 7 7 7 7 7 7 7 7 7 8
9 9 9 9 10 10 10 10 10 10 10 10 10 10 10 10 10 10 10 9 9 9 9 9 9 9 9 8 8 8 8 8 8 7 7 7 7 7 7 7 7 7 7
10 10 10 10 10 10 10 10 10 11 11 11 11 11 11 10 10 10 10 10 9 9 9 9 9 9 8 8 8 8 8 8 8 8 7 7 7 7 7 7 7 7 7
10 10 10 10 10 10 10 11 11 11 11 11 11 11 11 11 11 10 10 10 10 9 9 9 9 9 9 8 8 8 8 8 8 8 8 8 7 7 7 7 7 7 7
10 10 10 11 11 11 11 11 11 11 11 11 11 11 11 11 11 11 11 10 10 10 10 9 9 9 9 9 9 9 9 8 8 8 8 8 8 7 7 7 7 7 7
Wind_Speed
8 8 8 8 8 8 7 8 7 7 6 7 7 7 8 8 7 7 7 7 8 7 7 8 8 7 5 5 5 5 6 6 8 5 4 4 5 4 7 9 11 11 11
7 7 7 7 7 8 8 8 8 8 7 7 7 8 9 9 8 9 9 9 9 9 9 9 8 7 7 6 6 7 7 6 9 9 5 4 4 5 6 6 9 11 11
7 8 7 8 8 8 8 7 8 8 8 8 9 9 9 9 9 9 9 10 10 10 10 10 9 8 7 6 6 7 7 8 8 8 6 4 3 4 4 4 4 5 10
7 8 8 7 7 7 7 7 7 8 8 9 9 10 10 11 10 9 9 9 10 10 10 10 10 9 8 7 7 6 7 8 8 7 6 5 4 4 3 3 2 2 3
7 7 7 7 7 7 7 7 7 8 9 8 9 10 10 10 11 10 8 10 9 9 9 10 11 12 13 10 8 6 6 5 5 5 6 5 4 3 2 2 3 3 2
7 7 6 6 6 6 6 7 7 8 9 9 10 10 11 10 14 15 11 8 7 8 7 7 9 10 13 14 15 14 10 7 5 5 5 5 4 3 1 1 2 2 0
6 6 6 6 6 6 7 7 7 8 8 9 9 9 10 12 16 15 13 7 8 8 8 7 9 9 9 7 9 11 12 14 12 8 7 5 5 4 3 3 2 1 0
6 6 6 6 6 6 7 7 7 7 7 7 7 8 8 12 16 15 13 8 8 9 10 9 9 9 10 7 7 8 9 9 9 7 7 6 5 4 4 3 1 1 1
6 6 6 6 6 6 7 7 6 6 6 7 6 7 8 10 15 15 10 5 8 9 10 10 10 9 13 11 7 7 7 5 9 11 9 7 6 5 5 4 4 2 1
6 7 6 6 6 7 6 6 5 5 6 6 7 7 8 8 13 16 12 4 5 7 7 8 13 11 13 13 7 7 6 5 4 3 3 1 1 1 0 1 2 3 2
6 7 7 6 6 6 5 4 4 5 6 6 6 6 6 7 10 14 14 7 5 5 6 6 6 10 12 11 8 5 4 3 2 1 1 2 1 1 1 0 2 2 2
6 6 6 5 5 6 4 4 4 4 4 4 5 6 5 5 6 9 13 12 10 7 6 5 4 7 8 8 5 6 8 6 3 0 1 1 2 1 1 1 2 3 3
6 6 6 6 5 4 3 2 2 2 2 2 4 5 5 4 3 6 8 9 9 6 4 3 2 2 4 2 3 6 5 3 2 3 3 2 1 0 1 2 3 5 7
6 5 5 5 5 4 4 4 5 5 4 3 3 4 5 5 5 5 3 3 3 3 2 0 2 3 3 3 3 2 1 2 3 3 2 2 1 1 1 1 2 2 3
5 4 5 6 6 6 7 6 6 6 6 5 5 5 5 5 3 5 5 5 5 5 5 3 3 3 2 1 1 1 1 1 2 2 2 3 3 2 2 2 2 3 3
5 4 5 6 6 6 7 6 10 7 9 11 10 7 6 6 3 5 7 8 8 9 6 3 1 1 2 2 2 2 2 3 3 3 3 3 3 3 3 3 3 2 3
4 4 4 5 5 6 6 6 5 4 5 6 7 7 5 2 3 5 8 11 11 8 4 2 1 2 2 2 2 3 3 2 2 3 2 3 3 3 3 3 3 3 3
5 3 3 4 4 4 5 6 6 6 5 3 2 2 2 2 4 6 7 7 6 5 3 1 1 2 2 2 2 2 2 1 1 2 2 3 3 3 4 4 3 3 4
5 4 2 3 4 4 4 4 5 6 6 5 5 4 6 7 8 9 6 4 6 3 0 1 2 1 1 1 1 1 1 1 1 2 2 2 3 3 4 4 3 4 4
3 2 1 2 4 4 4 4 4 5 5 5 6 6 5 5 5 6 6 5 4 1 1 2 2 1 1 1 0 0 1 1 1 1 1 1 3 3 4 5 5 5 4
6 5 4 4 4 4 4 4 3 3 4 4 4 4 5 5 5 4 3 3 1 1 2 1 1 2 1 1 1 2 2 1 1 2 2 3 3 3 4 4 5 5 5
6 7 6 5 3 3 2 3 3 3 4 4 4 6 7 6 4 2 1 1 1 1 1 1 3 1 2 2 2 2 2 1 2 3 4 4 4 4 4 5 5 5 5
6 6 6 5 4 3 4 4 4 4 4 5 5 5 6 5 2 1 2 2 1 1 1 2 3 2 2 3 1 3 2 2 2 2 3 4 5 5 5 5 7 8 7
7 7 7 6 6 6 6 5 5 5 5 4 3 3 4 3 2 2 2 2 2 3 4 4 3 2 1 2 4 3 1 0 1 4 5 5 6 5 5 6 7 8 8
7 7 7 7 7 6 6 6 5 5 4 4 4 3 3 4 4 4 3 3 4 4 5 5 5 5 6 6 5 4 3 3 3 4 6 7 6 7 7 8 8 8 8
9 8 7 7 7 7 6 6 6 6 6 5 4 4 3 4 4 4 4 4 4 4 5 6 7 7 8 8 8 7 8 8 8 9 8 8 7 8 8 8 10 10 10
Wind_Direction
60 57 51 48 49 52 51 49 45 44 44 46 46 50 51 46 40 48 55 59 60 63 68 73 75 78 86 92 100 101 102 109 119 122 134 153 164 164 168 179 172 175 183
67 63 57 54 54 55 54 52 50 46 46 46 47 52 55 52 47 50 52 53 57 59 62 65 69 77 80 89 98 102 109 112 124 128 135 153 170 167 169 180 186 188 186
71 68 61 58 58 55 50 51 54 52 48 47 48 52 51 50 51 52 56 57 57 57 59 62 62 68 75 86 95 104 112 117 120 128 137 152 166 168 173 198 186 180 187
74 73 67 61 61 57 52 51 54 57 55 52 50 51 51 45 41 47 59 64 66 63 61 62 62 61 62 74 84 92 105 111 121 130 136 148 155 169 173 186 180 197 197
81 77 74 71 66 61 55 52 52 57 63 58 56 51 50 48 35 33 51 68 69 70 70 71 73 73 69 67 77 75 93 109 124 130 131 131 136 144 176 199 180 192 207
85 84 83 77 72 65 62 59 58 60 62 62 61 57 51 42 25 28 35 58 66 71 76 83 84 73 73 74 76 71 69 77 84 96 104 110 107 99 65 77 96 100 124
89 89 87 81 76 69 70 65 61 64 67 67 66 64 56 34 26 26 27 54 61 58 60 60 67 60 50 59 75 71 63 59 64 77 80 82 81 60 44 51 65 79 246
97 91 91 89 87 78 71 71 66 66 71 70 70 68 60 37 25 23 23 60 64 59 54 58 61 46 33 37 68 73 69 56 58 67 67 65 65 43 25 16 353 343 307
97 92 87 91 92 87 80 75 70 72 77 76 75 70 61 39 24 23 24 75 74 67 61 50 48 45 27 37 60 73 75 73 78 82 83 82 73 56 33 14 5 11 351
100 96 93 94 93 89 85 84 82 84 83 82 76 68 61 51 33 30 26 58 95 101 91 72 52 43 35 38 43 54 57 45 56 87 96 116 161 167 43 356 348 5 5
105 103 102 100 102 95 86 81 84 89 89 90 91 79 64 54 47 38 34 33 38 82 87 76 50 35 37 36 40 47 31 342 320 258 173 172 177 187 184 8 2 23 17
112 110 110 114 112 106 100 94 99 110 117 118 120 109 87 65 46 38 37 39 40 56 67 71 66 38 32 24 22 4 349 333 295 240 94 79 77 60 26 1 331 302 270
119 116 113 108 98 106 118 124 133 146 142 138 131 123 117 103 66 36 35 37 40 52 59 66 54 9 342 329 334 335 338 343 16 41 44 45 42 46 289 289 280 279 278
120 115 113 114 108 85 62 57 54 37 32 45 88 98 100 80 52 24 23 52 50 56 36 294 258 279 281 288 290 291 314 27 24 20 16 359 337 320 319 328 330 315 308
133 131 128 117 107 92 75 54 63 55 51 44 42 58 72 74 40 18 20 20 12 13 335 285 238 215 215 198 137 86 56 50 26 10 11 355 348 345 341 343 333 321 320
148 152 144 137 138 131 116 93 60 73 70 67 63 69 77 86 82 25 14 359 354 355 345 312 333 35 59 66 59 76 71 51 22 6 0 353 348 344 343 333 322 321 321
155 154 154 150 156 157 147 139 130 96 66 65 67 72 82 78 12 355 350 340 324 325 311 302 47 41 38 39 40 47 62 64 360 339 352 353 347 341 336 330 330 329 323
166 162 173 159 158 158 158 160 160 157 153 153 165 199 216 260 292 307 327 330 298 265 250 279 73 69 56 41 44 39 32 33 5 344 349 348 341 329 324 320 321 329 322
175 173 176 158 164 168 177 176 168 163 160 162 165 193 229 245 266 275 289 273 280 291 115 77 58 48 55 71 87 98 323 351 22 309 304 314 314 312 315 314 310 303 289
141 106 191 206 178 179 189 184 171 167 166 171 177 182 187 209 230 236 229 244 256 262 78 76 66 34 4 329 314 242 227 194 235 272 311 326 308 304 305 303 306 302 294
170 168 208 236 204 190 193 181 174 181 177 176 165 154 176 224 229 222 207 216 260 59 68 24 231 215 194 227 27 6 353 1 12 10 347 322 310 308 303 299 300 307 311
175 177 199 214 194 192 202 194 193 193 186 177 168 176 198 242 259 224 161 138 132 136 120 314 316 356 58 38 33 326 322 11 34 30 347 326 317 308 306 307 313 313 306
199 195 192 190 185 179 222 225 213 210 210 204 201 191 194 221 228 188 151 150 159 169 193 233 274 308 85 100 334 300 325 10 16 18 327 312 313 315 314 311 309 306 304
210 204 194 191 196 205 216 219 221 228 227 218 210 197 185 196 211 198 195 185 188 207 220 230 241 253 241 229 252 265 260 96 356 334 325 306 302 300 302 302 300 301 303
224 209 203 202 208 214 221 225 229 239 241 230 226 220 210 202 201 203 199 195 206 219 225 230 232 233 239 244 238 219 190 200 238 270 287 288 287 291 291 293 294 295 296
225 214 210 210 214 220 224 229 232 236 239 237 231 227 228 231 222 209 199 202 211 216 223 230 232 235 238 243 242 223 211 219 237 250 258 271 278 281 288 291 294 294 293
Height
1526 1526 1525 1525 1525 1525 1525 1524 1524 1523 1523 1522 1522 1521 1520 1520 1520 1519 1519 1519 1518 1518 1518 1518 1517 1517 1518 1519 1520 1522 1524 1527 1529 1535 1538 1543 1546 1549 1551 1554 1556 1558 1560
1528 1528 1527 1527 1527 1527 1527 1526 1526 1526 1525 1525 1524 1523 1523 1522 1522 1522 1521 1521 1521 1520 1520 1520 1520 1521 1521 1522 1523 1525 1527 1530 1532 1535 1540 1544 1547 1550 1552 1555 1557 1559 1561
1530 1530 1530 1530 1530 1530 1529 1529 1529 1528 1528 1527 1527 1526 1526 1526 1525 1525 1524 1524 1524 1524 1523 1524 1524 1525 1525 1526 1527 1528 1530 1533 1535 1538 1542 1546 1549 1552 1554 1556 1558 1560 1561
1532 1532 1532 1532 1532 1532 1532 1532 1532 1531 1531 1530 1530 1529 1529 1529 1529 1529 1529 1528 1528 1528 1528 1528 1529 1529 1530 1530 1532 1533 1534 1536 1539 1542 1545 1548 1551 1554 1556 1557 1559 1561 1562
1534 1534 1534 1535 1535 1535 1535 1535 1535 1535 1534 1534 1534 1533 1533 1533 1533 1533 1534 1533 1532 1533 1533 1533 1534 1534 1535 1535 1536 1538 1539 1541 1543 1545 1548 1551 1553 1555 1557 1558 1560 1561 1562
1536 1537 1537 1537 1538 1538 1538 1538 1538 1538 1538 1537 1537 1537 1537 1537 1538 1538 1538 1538 1537 1537 1538 1539 1539 1539 1540 1541 1542 1542 1544 1545 1546 1548 1550 1553 1555 1557 1558 1559 1560 1561 1562
1538 1539 1539 1540 1540 1541 1541 1541 1541 1541 1541 1541 1541 1541 1541 1542 1542 1542 1542 1542 1542 1542 1542 1543 1544 1544 1545 1545 1546 1547 1547 1548 1550 1551 1553 1555 1556 1558 1559 1560 1560 1561 1562
1540 1541 1542 1543 1543 1543 1543 1544 1544 1545 1545 1545 1545 1545 1546 1546 1547 1547 1547 1547 1546 1546 1546 1547 1547 1548 1549 1549 1550 1550 1551 1552 1553 1554 1555 1556 1558 1559 1559 1561 1561 1561 1562
1543 1544 1544 1545 1545 1546 1546 1547 1547 1548 1548 1549 1549 1549 1550 1550 1551 1550 1550 1550 1550 1550 1550 1551 1551 1552 1552 1552 1553 1554 1554 1555 1556 1557 1558 1558 1559 1560 1561 1561 1561 1561 1561
1545 1546 1547 1547 1548 1549 1549 1550 1551 1551 1552 1552 1553 1553 1553 1554 1554 1554 1554 1554 1554 1554 1554 1554 1555 1555 1555 1556 1556 1556 1557 1558 1559 1560 1560 1561 1561 1561 1562 1562 1561 1561 1561
1547 1548 1549 1550 1550 1551 1552 1553 1554 1555 1555 1556 1556 1556 1557 1557 1557 1557 1557 1557 1557 1558 1558 1558 1558 1558 1558 1558 1559 1559 1560 1561 1561 1561 1562 1562 1562 1562 1562 1562 1562 1562 1561
1549 1550 1551 1552 1554 1554 1555 1556 1557 1558 1558 1559 1560 1560 1560 1560 1560 1560 1560 1560 1560 1560 1561 1561 1561 1561 1561 1561 1561 1562 1562 1562 1563 1563 1563 1563 1563 1563 1563 1563 1562 1561 1561
1551 1552 1554 1555 1556 1557 1558 1559 1560 1560 1561 1562 1563 1563 1563 1563 1563 1563 1563 1564 1564 1563 1564 1564 1564 1564 1564 1564 1564 1564 1564 1564 1564 1564 1564 1564 1564 1564 1563 1562 1562 1561 1560
1553 1555 1556 1557 1559 1559 1560 1561 1562 1562 1563 1564 1565 1566 1566 1566 1566 1565 1565 1566 1566 1566 1566 1566 1566 1566 1566 1566 1566 1566 1566 1565 1565 1565 1565 1565 1564 1564 1563 1562 1561 1560 1559
1555 1557 1559 1560 1561 1562 1562 1563 1564 1564 1565 1566 1566 1567 1567 1567 1567 1567 1567 1567 1567 1567 1567 1567 1568 1568 1567 1568 1568 1567 1567 1567 1566 1566 1566 1565 1565 1564 1563 1562 1561 1560 1559
1558 1559 1561 1562 1563 1564 1565 1565 1566 1566 1567 1568 1568 1568 1568 1568 1568 1568 1569 1569 1569 1569 1569 1569 1569 1569 1569 1569 1569 1569 1568 1568 1567 1567 1566 1566 1565 1564 1563 1562 1561 1560 1559
1560 1561 1563 1564 1565 1566 1567 1567 1568 1569 1569 1569 1569 1569 1569 1569 1570 1570 1570 1571 1571 1571 1570 1570 1571 1571 1571 1570 1570 1570 1569 1568 1568 1567 1566 1566 1565 1564 1563 1562 1561 1559 1558
1561 1563 1564 1566 1567 1568 1569 1569 1569 1570 1570 1571 1571 1571 1571 1571 1571 1572 1572 1572 1571 1571 1571 1572 1572 1571 1571 1571 1570 1570 1569 1569 1568 1567 1567 1566 1565 1564 1563 1562 1560 1559 1557
1563 1564 1566 1567 1568 1569 1570 1571 1571 1572 1572 1572 1572 1572 1573 1573 1573 1573 1573 1572 1572 1572 1573 1573 1572 1572 1572 1571 1570 1570 1569 1569 1568 1567 1566 1565 1564 1563 1562 1561 1559 1558 1556
1564 1565 1567 1568 1569 1570 1571 1571 1572 1573 1573 1573 1573 1573 1573 1573 1573 1573 1573 1573 1573 1573 1573 1573 1572 1572 1571 1571 1570 1570 1569 1568 1568 1567 1566 1565 1564 1562 1561 1560 1558 1556 1555
1565 1566 1567 1568 1570 1570 1571 1572 1572 1573 1574 1574 1574 1574 1574 1573 1573 1574 1574 1573 1573 1573 1573 1573 1572 1572 1571 1571 1570 1570 1569 1568 1567 1566 1565 1564 1562 1561 1560 1558 1557 1555 1553
1566 1567 1568 1569 1570 1570 1571 1572 1573 1573 1573 1574 1574 1573 1573 1573 1573 1574 1574 1574 1573 1573 1573 1572 1572 1572 1571 1570 1569 1569 1568 1567 1566 1564 1563 1562 1561 1560 1558 1557 1555 1553 1551
1565 1567 1568 1569 1570 1570 1571 1572 1572 1573 1573 1573 1573 1573 1573 1573 1573 1573 1573 1573 1573 1573 1572 1572 1571 1571 1570 1569 1568 1567 1566 1565 1564 1563 1561 1560 1559 1558 1556 1554 1553 1551 1548
1565 1566 1567 1568 1569 1570 1570 1571 1571 1572 1572 1572 1572 1572 1572 1572 1572 1572 1572 1572 1572 1571 1571 1570 1570 1569 1568 1567 1566 1566 1565 1564 1562 1561 1559 1557 1556 1555 1553 1551 1549 1547 1545
1563 1565 1566 1567 1568 1569 1569 1570 1570 1570 1571 1571 1571 1571 1571 1571 1571 1571 1571 1570 1570 1570 1569 1569 1568 1567 1566 1566 1565 1563 1562 1561 1560 1558 1557 1555 1553 1551 1550 1548 1546 1544 1541
1561 1563 1564 1565 1566 1567 1567 1568 1568 1569 1569 1569 1569 1570 1570 1570 1569 1569 1569 1568 1568 1568 1567 1566 1566 1565 1564 1563 1562 1561 1560 1559 1557 1555 1554 1552 1550 1548 1546 1543 1541 1539 1537